Regional Weather Roundup
Issued by NWS

Home | Current Version | Previous Version | Graphics & Text | Print | Product List | Glossary On
Versions: 1 2 3 4 5 6 7 8 9 10 11 12 13 14 15 16 17 18 19 20 21 22 23 24 25 26 27 28 29 30 31 32 33 34 35 36 37 38 39 40 41 42 43 44 45 46 47 48 49 50
433
ASUS43 KDTX 261201
RWRMI
MICHIGAN HOURLY REGIONAL WEATHER ROUNDUP
NATIONAL WEATHER SERVICE DETROIT/PONTIAC MI
800 AM EDT WED APR 26 2017

NOTE: "FAIR" INDICATES FEW OR NO CLOUDS BELOW 12,000 FEET WITH NO
SIGNIFICANT WEATHER AND/OR OBSTRUCTION TO VISIBILITY.

MIZ047>049-052>055-059>063-066>070-074>076-081>083-261300-
SOUTHEAST LOWER MICHIGAN

CITY           SKY/WX    TMP DP  RH WIND       PRES   REMARKS
ADRIAN         MOSUNNY   58  55  90 S7        29.68S
6HR MIN TEMP:  52; 6HR MAX TEMP:  58;

ALMA           CLOUDY    58  55  87 SE9       29.63S
ANN ARBOR      MOSUNNY   55  54  96 E6        29.69S
BAD AXE        MOSUNNY   54  51  90 SE7       29.71S
6HR MIN TEMP:  52; 6HR MAX TEMP:  54;

CARO           SUNNY     56  53  87 SE14      29.68S
DETROIT        CLOUDY    57  54  89 SE8       29.72R
6HR MIN TEMP:  54; 6HR MAX TEMP:  58;

FLINT          SUNNY     56  53  90 SE13      29.68R
6HR MIN TEMP:  55; 6HR MAX TEMP:  57;

GROSSE ILE     CLOUDY    57  54  88 SE7       29.71R
6HR MIN TEMP:  54; 6HR MAX TEMP:  59;

HILLSDALE      CLOUDY    59  54  82 SE12      29.65F
HOWELL         MOSUNNY   58  53  82 SE12      29.68R
6HR MIN TEMP:  55; 6HR MAX TEMP:  58;


CITY           SKY/WX    TMP DP  RH WIND       PRES   REMARKS
JACKSON        CLOUDY    59  54  83 SE14      29.66R
6HR MIN TEMP:  57; 6HR MAX TEMP:  59;

LAMBERTVILLE   CLOUDY    59  55  85 S7        29.69R
6HR MIN TEMP:  51; 6HR MAX TEMP:  59;

LANSING        CLOUDY    61  53  75 SE13      29.64S
6HR MIN TEMP:  59; 6HR MAX TEMP:  61;

LAPEER         FAIR      55  52  90 SE9       29.71R
6HR MIN TEMP:  52; 6HR MAX TEMP:  56;

MASON          CLOUDY    60  55  85 SE10      29.66S
MONROE         CLOUDY    56  55  94 E7        29.70R
6HR MIN TEMP:  53; 6HR MAX TEMP:  57;

MT. CLEMENS    PTSUNNY   55  55 100 E10       29.72R
6HR MIN TEMP:  49; 6HR MAX TEMP:  55;

PONTIAC        PTSUNNY   54  51  90 SE10      29.70R
6HR MIN TEMP:  52; 6HR MAX TEMP:  55;

PORT HOPE        N/A     53  50  89 SE10      29.69S
6HR MIN TEMP:  49; 6HR MAX TEMP:  53;

PORT HURON     SUNNY     54  50  87 SE7       29.74S
TRI CITIES     MOSUNNY   59  55  87 SE14      29.65F
6HR MIN TEMP:  57; 6HR MAX TEMP:  60;

MIDLAND        PTSUNNY   62  52  71 SE9       29.63S
6HR MIN TEMP:  60; 6HR MAX TEMP:  62;

TROY           MOSUNNY   55  51  87 E5        29.74R
SAGINAW HB     SUNNY     57  50  77 SE13      29.66S
$$
MIZ043>046-050>051-056>058-064>065-071>073-077>080-261300-
SOUTHWEST LOWER MICHIGAN

CITY           SKY/WX    TMP DP  RH WIND       PRES   REMARKS
BATTLE CREEK   CLOUDY    61  55  81 SE10      29.60F
6HR MIN TEMP:  60; 6HR MAX TEMP:  62;

BENTON HARBOR  CLOUDY    65  55  70 SE9       29.53S
6HR MIN TEMP:  63; 6HR MAX TEMP:  66;

BIG RAPIDS     CLOUDY    59  52  78 SE9G16    29.57F
6HR MIN TEMP:  58; 6HR MAX TEMP:  60;

COLDWATER      CLOUDY    61  55  82 SE12G17   29.61F
6HR MIN TEMP:  58; 6HR MAX TEMP:  61;

FREMONT        FAIR      62  52  71 SE6G16    29.54F
HOLLAND        MOSUNNY   63  55  75 SE9       29.55F
6HR MIN TEMP:  60; 6HR MAX TEMP:  64;

GRAND RAPIDS   CLOUDY    61  56  83 SE13      29.57F
6HR MIN TEMP:  59; 6HR MAX TEMP:  62;

IONIA          FAIR      60  55  82 SE12      29.60S
6HR MIN TEMP:  57; 6HR MAX TEMP:  60;

KALAMAZOO      CLOUDY    62  53  72 SE8       29.59F
6HR MIN TEMP:  60; 6HR MAX TEMP:  62;

LUDINGTON      MOSUNNY   62  55  78 SE8       29.51F
6HR MIN TEMP:  60; 6HR MAX TEMP:  64;

MARSHALL       CLOUDY    61  56  82 SE7       29.62S
6HR MIN TEMP:  58; 6HR MAX TEMP:  61;

MOUNT PLEASANT PTSUNNY   59  53  79 SE9       29.62S
6HR MIN TEMP:  58; 6HR MAX TEMP:  60;

MUSKEGON       CLOUDY    64  55  72 SE10      29.54S
6HR MIN TEMP:  62; 6HR MAX TEMP:  65;

SOUTH HAVEN    CLOUDY    62  55  80 SE6       29.54S
$$
MIZ016>042-261300-
NORTHERN LOWER MICHIGAN

CITY           SKY/WX    TMP DP  RH WIND       PRES   REMARKS
ALPENA         FOG       44  44 100 E7        29.69S VSB 1/2
6HR MIN TEMP:  44; 6HR MAX TEMP:  47;

BEAVER ISLAND  CLOUDY    44  44  99 E10G18    29.58S FOG
6HR MIN TEMP:  42; 6HR MAX TEMP:  44;

BELLAIRE       CLOUDY    61  52  71 S7        29.57F
6HR MIN TEMP:  58; 6HR MAX TEMP:  64;

CADILLAC       CLOUDY    58  53  83 SE10      29.58F
CHARLEVOIX     CLOUDY    61  53  74 SE10      29.59F
6HR MIN TEMP:  58; 6HR MAX TEMP:  61;

FRANKFORT      PTSUNNY   64  53  68 SE10      29.51F
GAYLORD        CLOUDY    57  50  77 S10       29.63R
6HR MIN TEMP:  56; 6HR MAX TEMP:  58;

GRAYLING       CLOUDY    57  52  85 SE8       29.63F
6HR MIN TEMP:  55; 6HR MAX TEMP:  58;

HARBOR SPRINGS CLOUDY    52  50  93 E7        29.60S
HOUGHTON LAKE  CLOUDY    57  52  83 SE9       29.63S
6HR MIN TEMP:  56; 6HR MAX TEMP:  59;

MANISTEE       PTSUNNY   63  55  75 SE7       29.52F
OSCODA         CLOUDY    50  48  93 S6        29.68S FOG
6HR MIN TEMP:  46; 6HR MAX TEMP:  50;

PELLSTON       CLOUDY    50  47  89 SE3       29.61F FOG
6HR MIN TEMP:  44; 6HR MAX TEMP:  50; 6HR PCP: TRACE;

ROGERS CITY    CLOUDY    51  48  92 SE8       29.67S FOG
TRAVERSE CITY  PTSUNNY   62  53  72 SE9G20    29.54F
6HR MIN TEMP:  53; 6HR MAX TEMP:  63;

$$
MIZ007>008-015-261300-
EASTERN UPPER MICHIGAN

CITY           SKY/WX    TMP DP  RH WIND       PRES   REMARKS
KINROSS        LGT RAIN  46  46 100 E16       29.66S FOG
6HR MIN TEMP:  46; 6HR MAX TEMP:  47; 6HR PCP:  0.02;

MACKINAC ISLAN SNOW      40  40 100 E22G31    29.62F VSB<1/4 WCI  31
6HR MIN TEMP:  40; 6HR MAX TEMP:  42;

NEWBERRY       LGT RAIN  47  46  97 E15       29.59F
6HR MIN TEMP:  46; 6HR MAX TEMP:  48; 6HR PCP:  0.04;

S. S. MARIE    RAIN      51  49  92 E7        29.67F FOG
6HR MIN TEMP:  50; 6HR MAX TEMP:  52; 6HR PCP:  0.03;

MUNISING         N/A     41  41 100 N5        29.57S
6HR MIN TEMP:  40; 6HR MAX TEMP:  52; 6HR PCP:  0.39;

$$
MIZ004>006-011>014-085-261300-
CENTRAL UPPER MICHIGAN

CITY           SKY/WX    TMP DP  RH WIND       PRES   REMARKS
MANISTIQUE     DRIZZLE   49  48  97 E10G16    29.56S
6HR MIN TEMP:  47; 6HR MAX TEMP:  49; 6HR PCP:  0.02;

ESCANABA       LGT RAIN  49  48  97 NE8       29.53F FOG
6HR MIN TEMP:  47; 6HR MAX TEMP:  49; 6HR PCP:  0.07;

MENOMINEE      CLOUDY    47  46  97 E8        29.49F
6HR MIN TEMP:  45; 6HR MAX TEMP:  47; 6HR PCP:  0.07;

SAWYER-GWINN   DRZL/FOG  39  37  93 NE13      29.55F VSB 1/2 WCI  32
$$
MIZ001>003-009>011-084-261300-
WESTERN UPPER MICHIGAN

CITY           SKY/WX    TMP DP  RH WIND       PRES   REMARKS
IRON MOUNTAIN  LGT RAIN  49  46  90 NE7       29.50S
6HR MIN TEMP:  49; 6HR MAX TEMP:  52; 6HR PCP:  0.61;

HOUGHTON       RAIN      34  32  92 NE9G21    29.61S FOG     WCI  27
6HR MIN TEMP:  34; 6HR MAX TEMP:  35; 6HR PCP:  0.38;

COPPER HARBOR    N/A     33  32  96 E12G22    29.69S WCI  24
6HR MIN TEMP:  33; 6HR MAX TEMP:  36; 6HR PCP:  0.15;

IRONWOOD       MIX PCPN  32  31  96 NE7       29.56F FOG     WCI  26
6HR MIN TEMP:  32; 6HR MAX TEMP:  33; 6HR PCP:  0.48;

$$

ABBREVIATIONS USED IN REMARKS
   TC - TEMPERATURE IN CELSIUS
  WCI - WIND CHILL INDEX
   HX - HEAT INDEX
  VSB - VISIBILITY





USA.gov is the U.S. government's official web portal to all federal, state and local government web resources and services.